Tracking 25703 objects as of 3-Jul-2022
HD Live streaming from Space Station
objects crossing your sky now

STARLINK-1866

Track STARLINK-1866 now!
10-day predictions
STARLINK-1866 is classified as:


NORAD ID: 47152
Int'l Code: 2020-088AG
Perigee: 553.4 km
Apogee: 555.3 km
Inclination: 53.1 °
Period: 95.6 minutes
Semi major axis: 6925 km
RCS: Unknown
Launch date: November 25, 2020
Source: United States (US)
Launch site: AIR FORCE EASTERN TEST RANGE (AFETR)
aabbcc
Your satellite tracking list
Your tracking list is empty




NASA's NSSDC Master Catalog

Two Line Element Set (TLE):
1 47152U 20088AG  22183.49439402  .00001145  00000-0  95730-4 0  9997
2 47152  53.0528 224.9132 0001362  72.3964 287.7173 15.06402136 88931
Source of the keplerian elements: AFSPC